Volver al catálogo

DMSP 5D-3 F16 DEB

ActivoPO
NORAD 28081·DEBRIS·🇺🇸 United States

Lanzado Oct 18, 2003 desde Vandenberg Space Force Base

Loading…

Próximos Pases (próximas 24 horas)

TLE

ActualizadoSource: Space-Track

Época: Sep 14, 2026, 13:44 UTC

1 28081U 03048E   26257.57273333  .00010976  00000-0  14210-2 0  9992
2 28081  98.4828 299.8959 0006537 235.8731 124.1861 14.81029578190425

Sigue DMSP 5D-3 F16 DEB en tiempo real con AllMySat

Download on the App Store